Location: Recife
(8.0585°S, 34.8848°W)
Time: 12:26:17
(UTC-03:00)

Vanguard 1 Rocket - Pass Details

Date: 23 April 2026
Orbit: 655 x 4212 km, 34.3° (Epoch: 12 May)

Event Time Altitude Azimuth Distance (km) Brightness Sun altitude
Rises 21:40:22 0° 311° (NW) 8,210 12.6 -65.6°
Reaches altitude 10° 21:56:05 10° 343° (NNW) 7,382 12.1 -69.4°
Maximum altitude 22:01:29 11° 356° (N) 7,192 11.9 -70.7°
Drops below altitude 10° 22:06:42 10° 9° (N) 7,078 11.9 -71.9°
Sets 22:20:05 0° 41° (NE) 7,216 11.9 -75.0°
